�N����,����,�~����,�C��,���x,�C��,����,���ϕ���,�ő�u�ԕ���,�ő厞����,���˗�,�I�_���x,�n�����x,�ő啗���N��,DTYPE
"20/04/03","00:10",0.0,4.9,90.7,1015.6,295.2,2.0,2.8,318.5,0.00,3.5,11.2,"00:03:40",1
"20/04/03","00:20",0.0,4.8,90.8,1015.2,281.9,1.7,2.0,309.0,0.00,3.5,11.2,"00:17:02",1
"20/04/03","00:30",0.0,4.7,90.9,1015.6,279.4,2.0,2.5,270.3,0.00,3.4,11.0,"00:23:10",1
"20/04/03","00:40",0.0,4.5,91.0,1015.4,289.3,1.7,2.4,307.0,0.00,3.2,10.8,"00:34:34",1
"20/04/03","00:50",0.0,4.4,91.1,1015.4,273.5,1.8,2.4,278.0,0.00,3.1,10.8,"00:48:44",1
"20/04/03","01:00",0.0,4.5,91.2,1015.4,292.2,2.6,4.2,320.1,0.00,3.2,10.8,"00:55:52",1
"20/04/03","01:10",0.0,4.5,91.1,1015.4,292.7,2.6,4.0,313.6,0.00,3.2,10.7,"01:04:40",1
"20/04/03","01:20",0.0,4.3,91.1,1015.6,276.1,2.1,2.7,303.8,0.00,3.0,10.7,"01:10:24",1
"20/04/03","01:30",0.0,4.1,91.1,1015.4,300.2,1.0,1.9,295.9,0.00,2.8,10.6,"01:20:08",1
"20/04/03","01:40",0.0,3.8,91.4,1015.9,323.0,1.8,2.5,318.9,0.00,2.6,10.6,"01:31:44",1
"20/04/03","01:50",0.0,3.7,91.5,1015.9,290.8,0.7,1.7,332.9,0.00,2.5,10.5,"01:40:32",1
"20/04/03","02:00",0.0,3.7,91.6,1015.9,300.9,1.2,2.5,315.4,0.00,2.5,10.7,"01:54:10",1
"20/04/03","02:10",0.0,3.5,91.8,1015.9,295.9,0.6,1.6,299.2,0.00,2.3,10.2,"02:01:20",1
"20/04/03","02:20",0.0,3.1,91.9,1015.9,306.6,2.0,2.7,316.2,0.00,2.0,10.3,"02:14:48",1
"20/04/03","02:30",0.0,3.0,92.2,1015.9,299.4,1.8,2.5,314.1,0.00,1.9,10.4,"02:22:32",1
"20/04/03","02:40",0.0,2.9,92.4,1015.6,304.9,1.5,2.2,324.1,0.00,1.8,10.2,"02:33:04",1
"20/04/03","02:50",0.0,3.0,92.6,1015.9,320.6,1.6,2.9,323.3,0.00,2.0,10.3,"02:49:12",1
"20/04/03","03:00",0.0,2.7,92.7,1015.6,300.0,1.5,2.1,321.6,0.00,1.7,10.1,"02:50:08",1
"20/04/03","03:10",0.0,2.6,92.9,1015.6,298.5,1.8,2.6,314.2,0.00,1.6,10.1,"03:09:20",1
"20/04/03","03:20",0.0,2.5,93.1,1015.6,295.5,1.5,2.4,319.9,0.00,1.5,9.9,"03:10:08",1
"20/04/03","03:30",0.0,2.4,93.2,1015.6,295.3,1.6,1.9,308.5,0.00,1.5,9.9,"03:23:52",1
"20/04/03","03:40",0.0,2.5,93.4,1015.4,307.5,2.0,2.7,322.1,0.00,1.6,9.8,"03:38:56",1
"20/04/03","03:50",0.0,2.4,93.5,1015.6,294.8,1.7,2.2,322.4,0.00,1.5,9.8,"03:40:48",1
"20/04/03","04:00",0.0,2.6,93.7,1015.9,281.6,1.7,2.6,307.6,0.00,1.7,9.8,"03:58:00",1
"20/04/03","04:10",0.0,2.6,93.8,1015.9,315.7,2.1,2.8,319.7,0.00,1.7,9.7,"04:03:44",1
"20/04/03","04:20",0.0,2.4,93.9,1015.6,302.4,2.1,2.5,312.3,0.00,1.6,9.7,"04:10:16",1
"20/04/03","04:30",0.0,2.5,94.1,1015.9,317.0,2.2,3.2,324.1,0.00,1.7,9.7,"04:22:16",1
"20/04/03","04:40",0.0,2.3,94.3,1015.9,318.0,2.0,2.8,320.6,0.00,1.5,9.7,"04:30:16",1
"20/04/03","04:50",0.0,2.0,94.4,1015.6,314.7,2.3,3.1,319.3,0.00,1.2,9.5,"04:43:28",1
"20/04/03","05:00",0.0,1.8,94.6,1015.9,301.7,1.5,2.0,316.1,0.00,1.1,9.4,"04:51:20",1
"20/04/03","05:10",0.0,1.9,94.8,1015.9,312.9,1.5,2.0,320.6,0.00,1.2,9.5,"05:06:56",1
"20/04/03","05:20",0.0,1.8,94.9,1015.6,298.3,1.0,1.7,306.8,0.00,1.1,9.6,"05:10:24",1
"20/04/03","05:30",0.0,1.9,95.0,1016.1,305.1,1.5,2.8,330.2,0.00,1.2,9.3,"05:29:28",1
"20/04/03","05:40",0.0,1.6,95.2,1016.6,324.6,2.3,2.8,326.5,0.00,1.0,9.4,"05:31:04",1
"20/04/03","05:50",0.0,1.9,95.4,1016.1,320.9,2.3,3.1,323.6,0.00,1.3,9.4,"05:40:56",1
"20/04/03","06:00",0.0,2.0,95.3,1016.4,307.7,2.2,2.6,319.9,0.00,1.4,9.1,"05:51:04",1
"20/04/03","06:10",0.0,2.1,95.5,1016.4,297.1,2.2,3.1,317.0,0.00,1.5,9.2,"06:09:12",1
"20/04/03","06:20",0.0,2.1,95.5,1016.1,309.2,2.2,3.4,318.6,0.00,1.5,9.4,"06:11:04",1
"20/04/03","06:30",0.0,2.0,95.6,1016.1,292.8,1.7,2.7,304.8,0.00,1.4,9.3,"06:20:40",1
"20/04/03","06:40",0.0,2.1,95.8,1016.1,279.7,1.7,2.6,299.7,0.00,1.5,9.3,"06:38:24",1
"20/04/03","06:50",0.2,2.4,95.9,1016.6,295.3,2.1,2.7,310.4,0.00,1.9,9.2,"06:40:48",1
"20/04/03","07:00",0.0,2.8,95.9,1016.4,305.1,1.8,2.5,320.2,0.00,2.3,9.2,"06:56:24",1
"20/04/03","07:10",0.0,2.9,96.0,1016.8,314.3,1.8,2.5,326.1,0.02,2.4,9.2,"07:02:02",1
"20/04/03","07:20",0.0,3.4,96.1,1016.6,308.0,1.8,2.5,320.2,0.03,2.9,9.2,"07:18:16",1
"20/04/03","07:30",0.0,3.9,96.1,1016.8,322.6,1.6,2.5,323.6,0.04,3.4,9.3,"07:24:08",1
"20/04/03","07:40",0.0,4.4,96.1,1017.1,303.7,1.1,1.7,334.3,0.05,3.9,9.3,"07:30:24",1
"20/04/03","07:50",0.0,5.0,96.0,1016.8,292.5,1.0,1.4,314.6,0.06,4.5,9.4,"07:49:58",1
"20/04/03","08:00",0.0,5.6,95.9,1017.1,301.3,1.2,1.8,320.7,0.08,5.0,9.3,"07:52:30",1
"20/04/03","08:10",0.0,6.1,95.8,1017.8,290.5,0.8,2.0,323.4,0.09,5.5,9.3,"08:09:50",1
"20/04/03","08:20",0.0,6.3,95.7,1017.5,328.4,1.5,2.0,339.9,0.10,5.7,9.5,"08:15:18",1
"20/04/03","08:30",0.0,6.7,95.6,1017.5,306.4,1.3,1.9,318.0,0.11,6.1,9.5,"08:25:12",1
"20/04/03","08:40",0.0,7.2,95.4,1017.8,290.9,1.2,1.9,320.6,0.12,6.6,9.5,"08:31:44",1
"20/04/03","08:50",0.0,7.4,95.0,1017.8,257.2,0.6,1.4,267.9,0.15,6.7,9.7,"08:40:32",1
"20/04/03","09:00",0.0,7.9,95.1,1018.0,287.5,0.6,1.2,263.1,0.16,7.2,9.7,"08:54:40",1
"20/04/03","09:10",0.0,8.4,94.9,1018.0,314.0,0.8,1.8,333.1,0.17,7.7,9.9,"09:05:36",1
"20/04/03","09:20",0.0,8.7,94.1,1018.5,268.6,0.5,1.2,306.9,0.18,7.8,10.2,"09:10:16",1
"20/04/03","09:30",0.0,8.7,92.8,1018.5,234.9,0.6,1.2,262.1,0.25,7.6,10.1,"09:28:32",1
"20/04/03","09:40",0.0,9.3,92.2,1018.7,196.9,0.5,1.4,125.2,0.29,8.1,10.2,"09:36:08",1
"20/04/03","09:50",0.0,10.0,90.1,1018.7,262.3,0.8,1.6,309.7,0.30,8.5,10.4,"09:46:40",1
"20/04/03","10:00",0.0,10.3,86.8,1019.0,221.0,0.8,1.6,119.6,0.29,8.2,10.7,"09:56:40",1
"20/04/03","10:10",0.0,11.0,82.4,1019.7,216.0,0.6,1.9,106.5,0.32,8.2,10.6,"10:01:04",1
"20/04/03","10:20",0.0,11.5,75.6,1019.4,266.6,0.7,1.8,110.0,0.33,7.4,11.1,"10:15:44",1
"20/04/03","10:30",0.0,12.5,70.4,1019.2,184.0,0.5,1.3,105.4,0.40,7.3,10.9,"10:21:36",1
"20/04/03","10:40",0.0,12.6,66.1,1018.7,196.5,1.1,2.1,221.2,0.42,6.5,11.2,"10:32:08",1
"20/04/03","10:50",0.0,12.9,63.1,1018.5,156.7,1.3,2.6,124.9,0.44,6.1,11.5,"10:49:28",1
"20/04/03","11:00",0.0,13.1,61.8,1018.5,218.7,1.2,2.6,41.7,0.42,6.0,11.8,"10:53:04",1
"20/04/03","11:10",0.0,13.5,60.6,1018.2,164.4,1.1,3.1,111.4,0.46,6.1,12.0,"11:05:52",1
"20/04/03","11:20",0.0,14.1,60.0,1018.0,201.5,1.3,2.8,235.7,0.51,6.5,12.1,"11:10:24",1
"20/04/03","11:30",0.0,13.7,58.7,1017.8,97.2,1.5,3.5,126.9,0.51,5.8,12.2,"11:20:32",1
"20/04/03","11:40",0.0,14.8,58.8,1017.5,186.1,0.8,2.5,179.3,0.51,6.9,12.4,"11:39:20",1
"20/04/03","11:50",0.0,14.9,56.8,1017.5,223.3,1.5,3.1,234.5,0.54,6.5,12.8,"11:41:04",1
"20/04/03","12:00",0.0,15.2,58.0,1017.1,200.9,2.0,3.3,198.5,0.54,7.0,12.8,"11:54:08",1
"20/04/03","12:10",0.0,15.3,53.8,1017.1,214.7,1.5,2.9,230.3,0.57,6.0,13.2,"12:01:36",1
"20/04/03","12:20",0.0,15.6,54.2,1016.8,226.9,1.3,3.4,198.7,0.51,6.4,13.4,"12:15:36",1
"20/04/03","12:30",0.0,15.9,49.9,1016.4,165.9,1.1,2.4,112.4,0.46,5.5,13.4,"12:20:02",1
"20/04/03","12:40",0.0,15.6,49.7,1016.6,176.7,1.8,3.1,157.6,0.44,5.2,13.8,"12:32:16",1
"20/04/03","12:50",0.0,15.5,50.5,1016.4,187.2,2.2,4.4,139.3,0.45,5.3,13.9,"12:46:08",1
"20/04/03","13:00",0.0,16.2,49.5,1016.1,177.6,1.7,4.5,128.4,0.46,5.7,13.9,"12:56:08",1
"20/04/03","13:10",0.0,16.2,51.0,1015.6,178.5,2.1,4.0,196.9,0.48,6.1,14.2,"13:00:24",1
"20/04/03","13:20",0.0,16.2,52.4,1015.9,183.6,2.1,4.1,143.7,0.45,6.5,14.1,"13:16:48",1
"20/04/03","13:30",0.0,16.5,50.5,1015.6,153.4,1.6,3.3,150.0,0.42,6.2,14.4,"13:29:12",1
"20/04/03","13:40",0.0,16.7,50.2,1015.6,198.2,2.1,3.6,206.0,0.45,6.3,14.5,"13:36:48",1
"20/04/03","13:50",0.0,16.8,46.6,1015.2,184.3,1.7,4.5,190.6,0.45,5.4,14.6,"13:44:40",1
"20/04/03","14:00",0.0,16.9,40.2,1015.4,198.3,1.5,3.5,230.5,0.34,3.3,14.7,"13:58:24",1
"20/04/03","14:10",0.0,17.0,38.6,1015.4,191.4,1.5,3.2,184.7,0.35,2.9,14.8,"14:06:16",1
"20/04/03","14:20",0.0,17.4,37.7,1014.9,141.6,1.6,4.3,126.9,0.42,2.9,15.1,"14:13:12",1
"20/04/03","14:30",0.0,17.8,39.3,1014.9,185.7,1.3,2.6,161.2,0.40,3.8,15.0,"14:22:40",1
"20/04/03","14:40",0.0,17.4,37.1,1014.5,152.2,1.3,3.6,120.2,0.24,2.7,15.0,"14:36:40",1
"20/04/03","14:50",0.0,17.6,36.3,1014.5,216.8,1.3,2.5,173.6,0.30,2.5,15.3,"14:48:08",1
"20/04/03","15:00",0.0,17.5,34.7,1014.2,163.7,1.8,3.3,195.9,0.25,1.8,15.0,"14:50:40",1
"20/04/03","15:10",0.0,17.4,34.5,1014.0,146.1,2.0,3.7,181.8,0.27,1.6,15.0,"15:09:12",1
"20/04/03","15:20",0.0,17.6,34.3,1014.0,126.2,1.7,3.9,114.1,0.25,1.7,15.2,"15:13:52",1
"20/04/03","15:30",0.0,18.0,34.6,1014.0,163.2,1.8,4.2,193.0,0.32,2.2,15.1,"15:20:24",1
"20/04/03","15:40",0.0,17.8,33.7,1013.8,174.4,1.8,4.1,215.5,0.23,1.7,15.2,"15:30:16",1
"20/04/03","15:50",0.0,17.3,31.2,1013.8,185.2,1.5,3.2,222.4,0.16,0.2,15.3,"15:40:56",1
"20/04/03","16:00",0.0,17.6,29.8,1013.5,126.4,1.1,3.3,157.9,0.18,-0.2,15.3,"15:58:48",1
"20/04/03","16:10",0.0,18.0,31.1,1013.3,176.4,1.8,4.7,188.9,0.27,0.7,15.0,"16:08:32",1
"20/04/03","16:20",0.0,17.7,31.2,1013.3,173.2,2.0,4.1,181.2,0.20,0.5,15.1,"16:16:08",1
"20/04/03","16:30",0.0,17.5,31.2,1013.3,175.7,2.3,3.7,172.3,0.16,0.3,15.0,"16:24:40",1
"20/04/03","16:40",0.0,17.2,30.7,1013.3,168.1,2.1,4.0,163.6,0.15,-0.2,15.0,"16:35:36",1
"20/04/03","16:50",0.0,17.2,30.8,1013.3,172.4,2.0,3.7,124.9,0.12,-0.1,15.0,"16:42:32",1
"20/04/03","17:00",0.0,17.1,30.1,1013.3,190.6,1.8,3.3,196.6,0.14,-0.5,15.0,"16:58:56",1
"20/04/03","17:10",0.0,17.7,31.1,1013.0,200.9,1.0,2.1,138.5,0.15,0.5,14.9,"17:07:52",1
"20/04/03","17:20",0.0,17.3,29.9,1013.3,180.0,1.6,3.2,177.8,0.11,-0.4,14.7,"17:13:52",1
"20/04/03","17:30",0.0,17.3,29.7,1013.0,200.3,1.2,3.1,183.8,0.09,-0.5,14.7,"17:25:52",1
"20/04/03","17:40",0.0,17.1,29.6,1013.0,195.6,2.0,3.9,198.9,0.08,-0.7,14.7,"17:34:00",1
"20/04/03","17:50",0.0,17.0,30.4,1013.0,187.3,1.5,2.8,199.7,0.06,-0.5,14.8,"17:46:32",1
"20/04/03","18:00",0.0,16.8,32.1,1012.8,212.4,1.1,2.7,230.4,0.04,0.1,14.7,"17:51:20",1
"20/04/03","18:10",0.0,16.7,32.4,1013.0,231.4,0.8,2.2,236.2,0.04,0.1,14.6,"18:02:08",1
"20/04/03","18:20",0.0,16.5,34.7,1013.0,239.5,0.7,1.6,239.7,0.03,0.9,14.5,"18:10:24",1
"20/04/03","18:30",0.0,15.9,42.0,1013.3,286.9,1.3,1.9,289.6,0.01,3.1,14.7,"18:21:44",1
"20/04/03","18:40",0.0,14.9,46.9,1013.0,293.6,1.3,2.1,294.4,0.00,3.7,14.4,"18:34:48",1
"20/04/03","18:50",0.0,14.0,50.7,1013.3,290.3,1.5,2.0,294.4,0.00,4.0,14.3,"18:40:16",1
"20/04/03","19:00",0.0,13.3,53.9,1013.0,306.5,1.6,2.7,334.1,0.00,4.2,14.3,"18:55:20",1
"20/04/03","19:10",0.0,12.7,56.4,1013.3,312.6,1.8,3.1,317.8,0.00,4.3,14.2,"19:06:26",1
"20/04/03","19:20",0.0,12.3,57.8,1013.3,324.1,2.6,3.9,331.4,0.00,4.3,14.0,"19:15:38",1
"20/04/03","19:30",0.0,12.2,58.0,1013.5,322.3,3.1,4.0,331.8,0.00,4.2,13.8,"19:24:04",1
"20/04/03","19:40",0.0,11.9,58.7,1013.5,292.7,1.6,3.2,311.7,0.00,4.1,13.9,"19:30:20",1
"20/04/03","19:50",0.0,11.7,59.8,1013.3,311.8,2.3,3.5,328.4,0.00,4.2,13.7,"19:47:50",1
"20/04/03","20:00",0.0,11.3,60.8,1013.8,297.7,1.5,1.8,292.6,0.00,4.1,13.6,"19:50:10",1
"20/04/03","20:10",0.0,10.9,61.6,1013.8,311.8,1.3,2.1,330.3,0.00,3.9,13.5,"20:09:56",1
"20/04/03","20:20",0.0,10.5,63.1,1014.0,288.8,1.5,2.8,332.4,0.00,3.8,13.4,"20:10:16",1
"20/04/03","20:30",0.0,10.4,63.6,1014.0,267.8,1.7,2.5,311.7,0.00,3.8,13.3,"20:21:20",1
"20/04/03","20:40",0.0,10.0,65.3,1014.5,322.4,2.0,2.9,314.4,0.00,3.8,13.4,"20:33:42",1
"20/04/03","20:50",0.0,9.9,65.7,1014.5,306.0,1.6,3.3,318.5,0.00,3.8,13.3,"20:44:26",1
"20/04/03","21:00",0.0,9.8,66.0,1014.5,287.7,2.0,3.1,325.5,0.00,3.8,13.2,"20:55:44",1
"20/04/03","21:10",0.0,9.4,66.4,1014.5,295.7,1.5,3.4,318.9,0.00,3.5,13.1,"21:04:32",1
"20/04/03","21:20",0.0,9.2,66.6,1014.2,307.1,1.5,2.0,345.1,0.00,3.4,13.0,"21:19:28",1
"20/04/03","21:30",0.0,9.0,67.1,1014.5,307.2,1.3,2.5,333.0,0.00,3.3,12.8,"21:20:40",1
"20/04/03","21:40",0.0,8.7,67.1,1014.5,275.1,1.7,2.5,264.0,0.00,3.0,12.7,"21:33:04",1
"20/04/03","21:50",0.0,9.0,65.4,1014.5,292.5,1.8,2.8,283.4,0.00,2.9,12.6,"21:43:36",1
"20/04/03","22:00",0.0,8.7,66.8,1014.2,335.3,1.3,2.2,337.0,0.00,2.9,12.7,"21:52:32",1
"20/04/03","22:10",0.0,8.4,67.8,1014.0,318.7,1.5,2.2,323.5,0.00,2.8,12.4,"22:07:52",1
"20/04/03","22:20",0.0,8.1,68.6,1014.0,288.9,1.5,2.7,311.8,0.00,2.7,12.5,"22:12:56",1
"20/04/03","22:30",0.0,7.6,69.2,1014.2,305.6,1.6,2.2,314.6,0.00,2.4,12.3,"22:24:32",1
"20/04/03","22:40",0.0,7.4,70.3,1014.0,311.3,1.5,2.6,307.6,0.00,2.4,12.2,"22:31:44",1
"20/04/03","22:50",0.0,7.4,71.1,1014.0,297.6,2.0,3.5,299.9,0.00,2.6,12.2,"22:44:56",1
"20/04/03","23:00",0.0,7.5,71.5,1014.2,321.0,1.3,2.2,325.2,0.00,2.7,12.1,"22:56:00",1
"20/04/03","23:10",0.0,7.3,71.9,1014.0,312.6,1.2,2.1,338.0,0.00,2.6,12.0,"23:03:28",1
"20/04/03","23:20",0.0,7.0,72.3,1014.2,285.0,0.8,2.1,313.8,0.00,2.4,11.9,"23:17:12",1
"20/04/03","23:30",0.0,6.8,72.9,1013.8,305.3,1.5,2.1,317.1,0.00,2.3,11.9,"23:26:24",1
"20/04/03","23:40",0.0,6.8,73.2,1013.5,295.4,1.6,2.1,313.7,0.00,2.4,11.7,"23:31:12",1
"20/04/03","23:50",0.0,6.7,73.6,1013.8,303.0,1.5,1.9,306.7,0.00,2.4,11.8,"23:43:28",1
"20/04/03","24:00",0.0,6.5,74.2,1013.5,300.1,1.7,2.1,318.9,0.00,2.3,11.7,"23:53:36",1
